Location: D�derode
(51.8092°N, 10.1065°E)
Time: 05:05:38
(UTC+00:00)

PSLV R/B - Pass Details

Date: 01 December 2020
Orbit: 503 x 578 km, 97.8° (Epoch: 23 January)

Event Time Altitude Azimuth Distance (km) Brightness Sun altitude
Rises 16:03:55 0° 166° (SSE) 2,782 7.6 -7.7°
Reaches altitude 10° 16:06:04 10° 167° (SSE) 1,884 6.7 -8.0°
Maximum altitude 16:10:10 84° 256° (WSW) 582 4.0 -8.5°
Drops below altitude 10° 16:14:14 10° 345° (NNW) 1,871 6.4 -9.1°
Sets 16:16:22 0° 346° (NNW) 2,761 7.3 -9.4°
